Tracking 18816 objects as of 17-October-2017
HD Live streaming from Space Station
objects crossing your sky now

ATLANTIS

Track ATLANTIS now!
10-day predictions
ATLANTIS is classified as:


NORAD ID: 42737
Int'l Code: 1998-067MS
Perigee: 378.9 km
Apogee: 384.5 km
Inclination: 51.6 °
Period: 92.0 minutes
Semi major axis: 6752 km
RCS: Unknown
Launch date: November 20, 1998
Source: United States (US)
Launch site: TYURATAM MISSILE AND SPACE COMPLEX (TTMTR)
Uplink (MHz):
Downlink (MHz): 436.390
Beacon (MHz):
Mode: 9600bps GMSK
Call sign: WD8DOX
Status: Active

aabbcc
Your satellite tracking list
Your tracking list is empty





NASA's NSSDC Master Catalog

Two Line Element Set (TLE):
1 42737U 98067MS  17289.82119790  .00046909  00000-0  47975-3 0  9990
2 42737  51.6352 147.4429 0004131  50.2969 309.8390 15.64528517 22266
Source of the keplerian elements: AFSPC